Regional Weather Roundup
Issued by NWS

Home | Current Version | Previous Version | Graphics & Text | Print | Product List | Glossary On
Versions: 1 2 3 4 5 6 7 8 9 10 11 12 13 14 15 16 17 18 19 20 21 22 23 24 25 26 27 28 29 30 31 32 33 34 35 36 37 38 39 40 41 42 43 44 45 46 47 48 49 50
000
ASUS44 KMEG 270300
RWRTN
TENNESSEE HOURLY STATE WEATHER ROUNDUP
NATIONAL WEATHER SERVICE MEMPHIS TN
1000 PM CDT SUN APR 26 2015

TNZ002-004-019-021-049-052-054-088>092-270400-
WEST TENNESSEE

CITY           SKY/WX    TMP DP  RH WIND       PRES   REMARKS
MEMPHIS INTL   PTCLDY    57  47  69 E12       29.91R
NWS MEMPHIS      N/A     55 N/A N/A MISG        N/A
JACKSON        CLEAR     47  45  93 CALM      29.92R
DYERSBURG      CLEAR     50  36  57 CALM      29.93S
UNION CITY     CLEAR     52  32  46 NE6       29.93R
PARIS          CLEAR     46  45  93 N5        29.93R
LEXINGTON      CLEAR     46  45  93 CALM      29.90S
SAVANNAH       CLEAR     48  32  53 CALM      29.92R
$$

TNZ008-025-027-028-033-062-065-066-270400-
NORTH MIDDLE TENNESSEE

CITY           SKY/WX    TMP DP  RH WIND       PRES   REMARKS
NASHVILLE      CLEAR     50  48  93 CALM      29.91R
CLARKSVILLE    CLEAR     52  41  66 NW6       29.92R
COOKEVILLE       N/A     46  45  93 CALM      29.88R VSB 1
CROSSVILLE     CLOUDY    47  44  90 W3        29.88R
$$

TNZ061-075-076-078-094-096-097-270400-
SOUTH MIDDLE TENNESSEE

CITY           SKY/WX    TMP DP  RH WIND       PRES   REMARKS
FAYETTEVILLE   CLEAR     48  46  93 N3        29.89R
TULLAHOMA      CLEAR     45  43  93 CALM      29.91R
WINCHESTER     CLEAR     48  46  93 CALM      29.90R
MCMINNVILLE    CLEAR     45  45 100 CALM      29.89R
COLUMBIA       CLEAR     46  32  57 CALM      29.90R
SHELBYVILLE    CLEAR     46  46 100 CALM      29.91R
$$

TNZ017-018-042-046-047-270400-
NORTHEAST TENNESSEE

CITY           SKY/WX    TMP DP  RH WIND       PRES   REMARKS
TRI CITIES     CLOUDY    52  42  69 CALM      29.83S
ELIZABETHTON   CLOUDY    48  43  81 CALM      29.83S
$$

TNZ012-013-036-069-073-074-270400-
CENTRAL EAST TENNESSEE

CITY           SKY/WX    TMP DP  RH WIND       PRES   REMARKS
KNOXVILLE      CLOUDY    55  46  71 W3        29.84R
OAK RIDGE      PTCLDY    52  47  83 SW3       29.87R
GATLINBURG     CLOUDY    54  46  76 CALM      29.85R
$$

TNZ083-085-099-270400-
SOUTHEAST TENNESSEE

CITY           SKY/WX    TMP DP  RH WIND       PRES   REMARKS
CHATTANOOGA    PTCLDY    52  46  80 CALM      29.86R
$$

SKY/WX REPORTED AS FAIR MEANS FEW OR NO CLOUDS BELOW
12 THOUSAND FEET.




USA.gov is the U.S. government's official web portal to all federal, state and local government web resources and services.